Miscellaneous Local Product
Issued by NWS Hastings, NE

Home | Current Version | Previous Version | Graphics & Text | Print | Product List | Glossary On
Versions: 1 2 3 4 5 6 7 8 9 10 11 12 13 14 15 16 17 18 19 20 21 22 23 24 25 26 27 28 29 30 31 32 33 34 35 36 37 38 39 40 41 42 43 44 45 46 47 48 49 50
000
AXUS43 KGID 271102
MISGRI

GID CWA HOURLY WEATHER ROUNDUP
NATIONAL WEATHER SERVICE HASTINGS NE
600 AM CDT SAT AUG 27 2016

NOTE: "FAIR" INDICATES FEW OR NO CLOUDS BELOW 12,000 FEET WITH NO
SIGNIFICANT WEATHER AND/OR OBSTRUCTIONS TO VISIBILITY.

...SOUTH CENTRAL NEBRASKA...

CITY           SKY/WX    TMP DP  RH WIND       PRES   REMARKS
GRAND ISLAND   FOG       59  59 100 SW3       30.03R VSB 1/4
HASTINGS       FOG       60  59  96 CALM      30.04R VSB 1/4
KEARNEY        CLEAR     57  54  88 CALM      30.04R
ORD            CLOUDY    63  60  90 S6        30.00F
YORK           CLOUDY    64  64 100 CALM      30.02S FOG
AURORA         FOG       61  61 100 CALM      30.02S VSB 1/4
LEXINGTON      CLEAR     54  52  95 W5        30.05R FOG
HOLDREGE       CLEAR     53  52  95 CALM      30.05R
HEBRON         CLOUDY    67  66  98 CALM      30.01F

...NEBRASKA PANHANDLE...

CITY           SKY/WX    TMP DP  RH WIND       PRES   REMARKS
CHADRON        CLEAR     50  49  96 CALM      30.01F
ALLIANCE       FOG       54  54 100 S9        30.05S VSB 3/4
SCOTTSBLUFF    FOG       54  53  97 SE9       30.05S VSB 1/4
SIDNEY         FOG       51  50  96 E6        30.08S VSB 1/4

...WESTERN AND NORTH CENTRAL NEBRASKA...

CITY           SKY/WX    TMP DP  RH WIND       PRES   REMARKS
VALENTINE      CLOUDY    55  53  93 SW7       30.03R
AINSWORTH      FOG       58  58 100 CALM      30.02R VSB 3/4
ONEILL         FOG       57  56  96 CALM      30.02R VSB 1/4
BROKEN BOW     CLOUDY    60  60 100 SW5       30.03S FOG
IMPERIAL       MOCLDY    50  49  96 N5        30.06R FOG
NORTH PLATTE   FOG       54  52  93 CALM      30.05F VSB 1/4
MCCOOK         FOG       51  50  96 SW5       30.05R VSB 1/2

...EASTERN NEBRASKA...

CITY           SKY/WX    TMP DP  RH WIND       PRES   REMARKS
NORFOLK        FOG       63  62  97 CALM      30.01S VSB 1
SO SIOUX CITY  CLOUDY    64  62  93 SE6       30.00S
TEKAMAH        CLOUDY    65  64  97 CALM      30.00R FOG
COLUMBUS       CLOUDY    64  57  77 CALM      30.02R
ALBION         CLOUDY    63  61  94 CALM      30.02F FOG
OMAHA EPPLEY   CLOUDY    66  64  93 E3        29.99F FOG
OFFUTT AFB     CLOUDY    66  66 100 E3        29.99R FOG
MILLARD        CLOUDY    67  65  96 CALM      29.99F FOG
LINCOLN        CLOUDY    68  66  93 NW5       30.00S
NEBRASKA CITY  DRIZZLE   67  67 100 CALM      29.99S
BEATRICE       CLOUDY    67  66  98 NW5       30.00R
FALLS CITY     HVY RAIN  68  68 100 S13       29.99R FOG

...NORTHERN KANSAS...

CITY           SKY/WX    TMP DP  RH WIND       PRES   REMARKS
GOODLAND       FOG       53  53 100 S5        30.05S VSB 1/2
HILL CITY      CLEAR     55  53  93 CALM      30.04S
SMITH CENTER   PTCLDY    57  57 100 CALM      30.05S FOG
BELOIT         CLOUDY    63  61  94 W3        30.02R
HAYS           PTCLDY    61  54  77 E5        30.02F
RUSSELL        MOCLDY    62  60  93 N5        30.00F
CONCORDIA      CLOUDY    65  63  93 NW6       30.01R
SALINA         CLOUDY    67  65  93 SW10      30.01R
TOPEKA         HVY RAIN  66  65  96 W7        30.06R FOG



USA.gov is the U.S. government's official web portal to all federal, state and local government web resources and services.